Flag for U.S.A. Weather past 2 weeks in Urbana, Illinois, U.S.A.

Now
52 °F

Sunny.


Feels Like: 49 °F
Forecast: 49 / 73 °F
Wind: 9 mph from West

Location: University Of Illinois-Willard Airport

Current Time: May 22, 2015 at 8:01:48 AM

Latest Report: May 22, 2015 at 6:53 AM


Visibility: 10 mi

Pressure: 30.15 "Hg

Humidity: 80%

Dew point: 46 °F

Location of UrbanaLocation

Historic Weather in Urbana — Graph

°F

Urbana temperature yesterday

Maximum temperature yesterday: 66 °F (at 3:53 PM)
Minimum temperature yesterday: 45 °F (at 12:53 AM)
Average temperature yesterday: 55 °F

Past Weeks' High & Low Weather Summary

 TemperatureHumidityPressure
High87 °F (May 7, 1:53 PM)97% (May 9, 5:53 AM)30.45 "Hg (May 9, 5:53 AM)
Low44 °F (May 13, 5:53 AM)27% (May 7, 12:53 PM)29.85 "Hg (May 11, 3:53 PM)
Average64 °F72%30.08 "Hg
* Reported May 7 6:53 AM — May 22 6:53 AM, Urbana, Weather by CustomWeather, © 2015

Note: Actual official high and low records may vary slightly from our data, if they occured in-between our weather recording intervals... More about our weather records

Advertising

Urbana weather history for previous 24 hours

 ConditionsComfort  
Time TempWeatherWind HumidityBarometerVisibility
6:53 AM
Fri, May 22
52 °FSunny.9 mph80%30.15 "Hg10 mi
5:53 AM48 °FClear.8 mph86%30.14 "Hg10 mi
4:53 AM49 °FClear.9 mph84%30.13 "Hg10 mi
3:53 AM49 °FClear.7 mph84%30.11 "Hg10 mi
2:53 AM50 °FClear.12 mph80%30.11 "Hg10 mi
1:53 AM50 °FClear.8 mph80%30.11 "Hg10 mi
12:53 AM52 °FPassing clouds.14 mph75%30.12 "Hg10 mi
11:53 PM
Thu, May 21
53 °FClear.12 mph72%30.12 "Hg10 mi
10:53 PM54 °FClear.12 mph62%30.13 "Hg10 mi
9:53 PM54 °FClear.9 mph59%30.13 "Hg10 mi
8:53 PM56 °FSunny.8 mph53%30.11 "Hg10 mi
7:53 PM61 °FSunny.10 mph41%30.11 "Hg10 mi
6:53 PM65 °FSunny.14 mph36%30.10 "Hg10 mi
5:53 PM66 °FPassing clouds.14 mph34%30.10 "Hg10 mi
4:53 PM65 °FScattered clouds.14 mph36%30.12 "Hg10 mi
3:53 PM66 °FPassing clouds.13 mph34%30.12 "Hg10 mi
2:53 PM64 °FPartly sunny.8 mph40%30.13 "Hg10 mi
1:53 PM64 °FPartly sunny.15 mph38%30.13 "Hg10 mi
12:53 PM61 °FScattered clouds.12 mph48%30.13 "Hg10 mi
11:53 AM59 °FPartly sunny.13 mph54%30.14 "Hg10 mi
10:53 AM56 °FPartly sunny.14 mph60%30.15 "Hg10 mi
9:53 AM53 °FOvercast.9 mph66%30.16 "Hg10 mi
8:53 AM50 °FOvercast.13 mph71%30.17 "Hg10 mi
Weather by CustomWeather, © 2015

See weather overviewHow to use our weather pages